,,Stat5,,Stat1,,Stat2,,Stat3,,Stat4,,Wind1,,Wind1,
time,status,PA1M_AVG,status,PR1M_SUM,status,RH1M_AVG,status,SR1M_AVG,status,TA1M_AVG,status,W1dAve1m,status,W1sAve1m,
2000-09-09, 00:00:00,VALID,918.565,VALID,0,VALID,97.705,VALID,0.0169808,VALID,19.2333,VALID,147,VALID,0.769141,
2000-09-09, 00:01:00,VALID,918.535,VALID,0,VALID,97.4481,VALID,0,VALID,19.2012,VALID,142,VALID,0.922852,
2000-09-09, 00:02:00,VALID,918.52,VALID,0,VALID,97.5346,VALID,0,VALID,19.201,VALID,146,VALID,0.803285,
2000-09-09, 00:03:00,VALID,918.52,VALID,0,VALID,97.6503,VALID,0,VALID,19.1913,VALID,160,VALID,0.598479,
2000-09-09, 00:04:00,VALID,918.495,VALID,0,VALID,97.7063,VALID,0,VALID,19.1848,VALID,153,VALID,0.45421,
2000-09-09, 00:05:00,VALID,918.503,VALID,0,VALID,97.8347,VALID,-0.0169808,VALID,19.1913,VALID,161,VALID,0.163086,
2000-09-09, 00:06:00,VALID,918.487,VALID,0,VALID,97.8449,VALID,0,VALID,19.1975,VALID,192,VALID,0.0806641,
2000-09-09, 00:07:00,VALID,918.486,VALID,0,VALID,97.7711,VALID,0,VALID,19.1846,VALID,308,VALID,0.424959,
2000-09-09, 00:08:00,VALID,918.483,VALID,0,VALID,97.8805,VALID,0,VALID,19.2114,VALID,326,VALID,0.656059,
2000-09-09, 00:09:00,VALID,918.483,VALID,0,VALID,98.0089,VALID,0,VALID,19.2176,VALID,326,VALID,0.598357,
2000-09-09, 00:10:00,VALID,918.495,VALID,0,VALID,98.0738,VALID,-0.0169808,VALID,19.1915,VALID,323,VALID,0.367821,
2000-09-09, 00:11:00,VALID,918.49,VALID,0,VALID,98.1488,VALID,0,VALID,19.1717,VALID,316,VALID,0.49116,
2000-09-09, 00:12:00,VALID,918.506,VALID,0,VALID,98.2124,VALID,0.0169808,VALID,19.165,VALID,297,VALID,0.315456,
2000-09-09, 00:13:00,VALID,918.506,VALID,0,VALID,98.1755,VALID,0,VALID,19.1461,VALID,266,VALID,0.0211397,
2000-09-09, 00:14:00,VALID,918.527,VALID,0,VALID,97.9797,VALID,0,VALID,19.0787,VALID,247,VALID,0.197027,
2000-09-09, 00:15:00,VALID,918.507,VALID,0,VALID,97.8309,VALID,0,VALID,19.0139,VALID,217,VALID,0.271434,
2000-09-09, 00:16:00,VALID,918.504,VALID,0,VALID,97.9466,VALID,0,VALID,18.9719,VALID,206,VALID,0.461338,
2000-09-09, 00:17:00,VALID,918.483,VALID,0,VALID,98.1666,VALID,0,VALID,18.9913,VALID,207,VALID,0.14926,
2000-09-09, 00:18:00,VALID,918.469,VALID,0,VALID,98.1768,VALID,0,VALID,18.9811,VALID,207,VALID,0,
2000-09-09, 00:19:00,VALID,918.45,VALID,0,VALID,98.0064,VALID,-0.0339617,VALID,18.9468,VALID,207,VALID,0,
2000-09-09, 00:20:00,VALID,918.42,VALID,0,VALID,97.2358,VALID,0,VALID,18.8173,VALID,207,VALID,0,
2000-09-09, 00:21:00,VALID,918.4,VALID,0,VALID,97.5613,VALID,0,VALID,18.8268,VALID,312,VALID,0.202492,
2000-09-09, 00:22:00,VALID,918.386,VALID,0,VALID,97.4965,VALID,-0.0169808,VALID,18.8014,VALID,340,VALID,0.0556066,
2000-09-09, 00:23:00,VALID,918.365,VALID,0,VALID,96.8518,VALID,0,VALID,18.6948,VALID,340,VALID,0,
2000-09-09, 00:24:00,VALID,918.349,VALID,0,VALID,96.6559,VALID,0.0339617,VALID,18.597,VALID,340,VALID,0,
2000-09-09, 00:25:00,VALID,918.333,VALID,0,VALID,96.7526,VALID,0,VALID,18.5493,VALID,340,VALID,0,
2000-09-09, 00:26:00,VALID,918.306,VALID,0,VALID,97.2498,VALID,0.0169808,VALID,18.5453,VALID,340,VALID,0,
2000-09-09, 00:27:00,VALID,918.294,VALID,0,VALID,97.5855,VALID,0,VALID,18.5649,VALID,341,VALID,0,
2000-09-09, 00:28:00,VALID,918.267,VALID,0,VALID,97.8792,VALID,0.0169808,VALID,18.594,VALID,341,VALID,0,
2000-09-09, 00:29:00,VALID,918.23,VALID,0,VALID,98.0051,VALID,0,VALID,18.6007,VALID,341,VALID,0,
2000-09-09, 00:30:00,VALID,918.202,VALID,0,VALID,98.1374,VALID,0.0169808,VALID,18.6102,VALID,341,VALID,0,
2000-09-09, 00:31:00,VALID,918.176,VALID,0,VALID,98.2213,VALID,0,VALID,18.6201,VALID,341,VALID,0,
2000-09-09, 00:32:00,VALID,918.159,VALID,0,VALID,98.2963,VALID,0,VALID,18.6395,VALID,341,VALID,0,
2000-09-09, 00:33:00,VALID,918.129,VALID,0,VALID,98.3027,VALID,-0.0169808,VALID,18.633,VALID,339,VALID,0,
2000-09-09, 00:34:00,VALID,918.101,VALID,0,VALID,98.3968,VALID,0,VALID,18.6335,VALID,211,VALID,0,
2000-09-09, 00:35:00,VALID,918.093,VALID,0,VALID,98.5455,VALID,0,VALID,18.6588,VALID,207,VALID,0,
2000-09-09, 00:36:00,VALID,918.078,VALID,0,VALID,98.5773,VALID,0,VALID,18.6854,VALID,199,VALID,0,
2000-09-09, 00:37:00,VALID,918.079,VALID,0,VALID,98.4909,VALID,-0.0169808,VALID,18.6625,VALID,204,VALID,0,
2000-09-09, 00:38:00,VALID,918.094,VALID,0,VALID,98.2149,VALID,0,VALID,18.6076,VALID,235,VALID,0,
2000-09-09, 00:39:00,VALID,918.11,VALID,0,VALID,97.8767,VALID,0,VALID,18.4974,VALID,242,VALID,0,
2000-09-09, 00:40:00,VALID,918.117,VALID,0,VALID,97.4621,VALID,-0.0169808,VALID,18.4109,VALID,262,VALID,0.042739,
2000-09-09, 00:41:00,VALID,918.138,VALID,0,VALID,97.2777,VALID,0,VALID,18.34,VALID,277,VALID,0.616976,
2000-09-09, 00:42:00,VALID,918.155,VALID,0,VALID,97.5359,VALID,0,VALID,18.3232,VALID,285,VALID,0.479004,
2000-09-09, 00:43:00,VALID,918.175,VALID,0,VALID,98.0712,VALID,0,VALID,18.4012,VALID,300,VALID,0.414063,
2000-09-09, 00:44:00,VALID,918.202,VALID,0,VALID,98.4705,VALID,-0.0679233,VALID,18.5149,VALID,304,VALID,0.602009,
2000-09-09, 00:45:00,VALID,918.206,VALID,0,VALID,98.6422,VALID,-0.118866,VALID,18.5767,VALID,298,VALID,0.580448,
2000-09-09, 00:46:00,VALID,918.225,VALID,0,VALID,98.7388,VALID,-0.118866,VALID,18.6344,VALID,288,VALID,0.62523,
2000-09-09, 00:47:00,VALID,918.237,VALID,0,VALID,98.7986,VALID,-0.101885,VALID,18.693,VALID,281,VALID,0.765625,
2000-09-09, 00:48:00,VALID,918.256,VALID,0,VALID,98.8316,VALID,-0.101885,VALID,18.7507,VALID,290,VALID,0.73972,
2000-09-09, 00:49:00,VALID,918.259,VALID,0,VALID,98.8202,VALID,-0.0849042,VALID,18.8128,VALID,272,VALID,0.585732,
2000-09-09, 00:50:00,VALID,918.283,VALID,0,VALID,98.7782,VALID,-0.101885,VALID,18.8282,VALID,274,VALID,0.479911,
2000-09-09, 00:51:00,VALID,918.286,VALID,0,VALID,98.59,VALID,-0.101885,VALID,18.8118,VALID,254,VALID,0.661951,
2000-09-09, 00:52:00,VALID,918.279,VALID,0,VALID,98.2696,VALID,-0.101885,VALID,18.7703,VALID,254,VALID,0.53125,
2000-09-09, 00:53:00,VALID,918.27,VALID,0,VALID,98.1106,VALID,-0.101885,VALID,18.7378,VALID,255,VALID,0.454603,
2000-09-09, 00:54:00,VALID,918.268,VALID,0,VALID,98.0814,VALID,-0.101885,VALID,18.7385,VALID,237,VALID,0.356201,
2000-09-09, 00:55:00,VALID,918.255,VALID,0,VALID,98.2302,VALID,-0.101885,VALID,18.7579,VALID,198,VALID,0.53726,
2000-09-09, 00:56:00,VALID,918.244,VALID,0,VALID,98.1971,VALID,-0.118866,VALID,18.7375,VALID,197,VALID,0.662946,
2000-09-09, 00:57:00,VALID,918.241,VALID,0,VALID,98.3167,VALID,-0.101885,VALID,18.7641,VALID,182,VALID,1.10684,
2000-09-09, 00:58:00,VALID,918.245,VALID,0,VALID,98.763,VALID,-0.101885,VALID,18.8511,VALID,183,VALID,1.34076,
2000-09-09, 00:59:00,VALID,918.258,VALID,0,VALID,98.7732,VALID,-0.0169808,VALID,18.9666,VALID,169,VALID,1.05321,
2000-09-09, 01:00:00,VALID,918.262,VALID,0,VALID,98.3243,VALID,-0.0169808,VALID,18.9205,VALID,170,VALID,1.02015,
2000-09-09, 01:01:00,VALID,918.262,VALID,0,VALID,98.2493,VALID,0.0339617,VALID,18.9336,VALID,174,VALID,1.00247,
2000-09-09, 01:02:00,VALID,918.234,VALID,0,VALID,98.0471,VALID,0,VALID,18.9368,VALID,181,VALID,1.01406,
2000-09-09, 01:03:00,VALID,918.21,VALID,0,VALID,97.9962,VALID,0,VALID,18.9555,VALID,174,VALID,1.03421,
2000-09-09, 01:04:00,VALID,918.196,VALID,0,VALID,97.6783,VALID,0,VALID,18.9557,VALID,165,VALID,1.05078,
2000-09-09, 01:05:00,VALID,918.163,VALID,0,VALID,97.4265,VALID,0,VALID,18.9431,VALID,164,VALID,1.06398,
2000-09-09, 01:06:00,VALID,918.126,VALID,0,VALID,97.3502,VALID,0.0169808,VALID,18.9398,VALID,147,VALID,1.07178,
2000-09-09, 01:07:00,VALID,918.109,VALID,0,VALID,97.1926,VALID,0,VALID,18.9142,VALID,143,VALID,0.989984,
2000-09-09, 01:08:00,VALID,918.076,VALID,0,VALID,97.0629,VALID,0,VALID,18.8755,VALID,144,VALID,0.957143,
2000-09-09, 01:09:00,VALID,918.056,VALID,0,VALID,96.6585,VALID,0,VALID,18.8012,VALID,138,VALID,1.15794,
2000-09-09, 01:10:00,VALID,918.02,VALID,0,VALID,96.937,VALID,-0.0169808,VALID,18.7624,VALID,150,VALID,1.46347,
2000-09-09, 01:11:00,VALID,917.987,VALID,0,VALID,97.279,VALID,0,VALID,18.7594,VALID,161,VALID,1.34269,
2000-09-09, 01:12:00,VALID,917.952,VALID,0,VALID,97.0972,VALID,0,VALID,18.6884,VALID,164,VALID,1.30222,
2000-09-09, 01:13:00,VALID,917.923,VALID,0,VALID,97.0984,VALID,0,VALID,18.6203,VALID,165,VALID,1.14042,
2000-09-09, 01:14:00,VALID,917.898,VALID,0,VALID,97.1137,VALID,-0.0169808,VALID,18.5502,VALID,162,VALID,1.11518,
2000-09-09, 01:15:00,VALID,917.848,VALID,0,VALID,97.485,VALID,-0.101885,VALID,18.4732,VALID,169,VALID,1.36381,
2000-09-09, 01:16:00,VALID,917.811,VALID,0,VALID,97.8462,VALID,-0.101885,VALID,18.418,VALID,139,VALID,1.2994,
2000-09-09, 01:17:00,VALID,917.774,VALID,0,VALID,98.1081,VALID,-0.0849042,VALID,18.3666,VALID,147,VALID,1.21959,
2000-09-09, 01:18:00,VALID,917.75,VALID,0,VALID,98.365,VALID,-0.0849042,VALID,18.3403,VALID,146,VALID,0.887695,
2000-09-09, 01:19:00,VALID,917.727,VALID,0,VALID,98.4832,VALID,-0.0849042,VALID,18.2985,VALID,144,VALID,1.08393,
2000-09-09, 01:20:00,VALID,917.719,VALID,0,VALID,98.7007,VALID,-0.0849042,VALID,18.299,VALID,155,VALID,0.938393,
2000-09-09, 01:21:00,VALID,917.706,VALID,0,VALID,98.894,VALID,-0.0849042,VALID,18.2886,VALID,172,VALID,0.860642,
2000-09-09, 01:22:00,VALID,917.671,VALID,0,VALID,99.0377,VALID,-0.101885,VALID,18.3248,VALID,187,VALID,0.79136,
2000-09-09, 01:23:00,VALID,917.649,VALID,0,VALID,99.2729,VALID,-0.101885,VALID,18.412,VALID,184,VALID,0.884291,
2000-09-09, 01:24:00,VALID,917.606,VALID,0,VALID,99.2894,VALID,-0.101885,VALID,18.457,VALID,173,VALID,0.795641,
2000-09-09, 01:25:00,VALID,917.58,VALID,0,VALID,99.3212,VALID,-0.118866,VALID,18.4766,VALID,182,VALID,1.14864,
2000-09-09, 01:26:00,VALID,917.551,VALID,0,VALID,99.3937,VALID,-0.101885,VALID,18.5315,VALID,164,VALID,0.987054,
2000-09-09, 01:27:00,VALID,917.526,VALID,0,VALID,99.4191,VALID,-0.118866,VALID,18.5544,VALID,172,VALID,0.987965,
2000-09-09, 01:28:00,VALID,917.501,VALID,0,VALID,99.4026,VALID,-0.101885,VALID,18.5576,VALID,158,VALID,0.755974,
2000-09-09, 01:29:00,VALID,917.48,VALID,0,VALID,99.409,VALID,-0.0339617,VALID,18.5465,VALID,163,VALID,0.40266,
2000-09-09, 01:30:00,VALID,917.469,VALID,0,VALID,99.4166,VALID,0.0169808,VALID,18.5495,VALID,161,VALID,0.392822,
2000-09-09, 01:31:00,VALID,917.468,VALID,0,VALID,99.4802,VALID,-0.0169808,VALID,18.5753,VALID,169,VALID,0.621394,
2000-09-09, 01:32:00,VALID,917.474,VALID,0,VALID,99.5514,VALID,0.0169808,VALID,18.6399,VALID,144,VALID,0.110491,
2000-09-09, 01:33:00,VALID,917.476,VALID,0,VALID,99.5933,VALID,-0.0169808,VALID,18.6685,VALID,198,VALID,0.219806,
2000-09-09, 01:34:00,VALID,917.489,VALID,0,VALID,99.634,VALID,0.0169808,VALID,18.7331,VALID,200,VALID,0,
2000-09-09, 01:35:00,VALID,917.518,VALID,0,VALID,99.6251,VALID,0.0339617,VALID,18.7523,VALID,212,VALID,0.243454,
2000-09-09, 01:36:00,VALID,917.535,VALID,0,VALID,99.6391,VALID,0.0169808,VALID,18.7913,VALID,238,VALID,0.351357,
2000-09-09, 01:37:00,VALID,917.553,VALID,0,VALID,99.6289,VALID,0.0509425,VALID,18.8111,VALID,265,VALID,0.4669,
2000-09-09, 01:38:00,VALID,917.561,VALID,0,VALID,99.601,VALID,0.0339617,VALID,18.7913,VALID,323,VALID,0.200893,
2000-09-09, 01:39:00,VALID,917.576,VALID,0,VALID,99.5844,VALID,0.0169808,VALID,18.7684,VALID,338,VALID,0,
2000-09-09, 01:40:00,VALID,917.578,VALID,0,VALID,99.5806,VALID,0,VALID,18.7428,VALID,338,VALID,0,
2000-09-09, 01:41:00,VALID,917.574,VALID,0,VALID,99.5768,VALID,0,VALID,18.7267,VALID,2,VALID,0,
2000-09-09, 01:42:00,VALID,917.555,VALID,0,VALID,99.5666,VALID,-0.0169808,VALID,18.7043,VALID,123,VALID,0,
2000-09-09, 01:43:00,VALID,917.531,VALID,0,VALID,99.5806,VALID,0,VALID,18.7043,VALID,128,VALID,0,
2000-09-09, 01:44:00,VALID,917.527,VALID,0,VALID,99.5425,VALID,0.0339617,VALID,18.6718,VALID,140,VALID,0,
2000-09-09, 01:45:00,VALID,917.51,VALID,0,VALID,99.545,VALID,0.0339617,VALID,18.6455,VALID,136,VALID,0.263725,
2000-09-09, 01:46:00,VALID,917.503,VALID,0,VALID,99.601,VALID,0.0849042,VALID,18.6674,VALID,133,VALID,0.733226,
2000-09-09, 01:47:00,VALID,917.502,VALID,0,VALID,99.6035,VALID,0.0849042,VALID,18.6874,VALID,171,VALID,0.651182,
2000-09-09, 01:48:00,VALID,917.493,VALID,0,VALID,99.6061,VALID,0.0679233,VALID,18.6708,VALID,207,VALID,0.724507,
2000-09-09, 01:49:00,VALID,917.497,VALID,0,VALID,99.6137,VALID,0.0339617,VALID,18.6745,VALID,229,VALID,0.735197,
2000-09-09, 01:50:00,VALID,917.503,VALID,0,VALID,99.62,VALID,0.0509425,VALID,18.6678,VALID,212,VALID,0.752455,
2000-09-09, 01:51:00,VALID,917.516,VALID,0,VALID,99.6111,VALID,0.0679233,VALID,18.6711,VALID,222,VALID,0.618032,
2000-09-09, 01:52:00,VALID,917.526,VALID,0,VALID,99.615,VALID,0.0169808,VALID,18.6547,VALID,211,VALID,0.62477,
2000-09-09, 01:53:00,VALID,917.533,VALID,0,VALID,99.5425,VALID,0.0339617,VALID,18.6002,VALID,165,VALID,0.554054,
2000-09-09, 01:54:00,VALID,917.523,VALID,0,VALID,99.5272,VALID,0.0679233,VALID,18.5419,VALID,157,VALID,0.778564,
2000-09-09, 01:55:00,VALID,917.509,VALID,0,VALID,99.5984,VALID,0.0339617,VALID,18.5223,VALID,166,VALID,0.870994,
2000-09-09, 01:56:00,VALID,917.485,VALID,0,VALID,99.6773,VALID,0.0509425,VALID,18.5742,VALID,175,VALID,0.824777,
2000-09-09, 01:57:00,VALID,917.452,VALID,0,VALID,99.6289,VALID,0.0509425,VALID,18.5548,VALID,167,VALID,0.998733,
2000-09-09, 01:58:00,VALID,917.399,VALID,0,VALID,99.6277,VALID,0.0509425,VALID,18.5449,VALID,168,VALID,1.01356,
2000-09-09, 01:59:00,VALID,917.357,VALID,0,VALID,99.676,VALID,0.0169808,VALID,18.552,VALID,165,VALID,1.01098,
2000-09-09, 02:00:00,VALID,917.306,VALID,0,VALID,99.6773,VALID,-0.0509425,VALID,18.5788,VALID,169,VALID,0.761513,
2000-09-09, 02:01:00,VALID,917.272,VALID,0,VALID,99.6595,VALID,-0.0339617,VALID,18.5627,VALID,184,VALID,0.705798,
2000-09-09, 02:02:00,VALID,917.249,VALID,0,VALID,99.6544,VALID,-0.0339617,VALID,18.5433,VALID,197,VALID,0.745313,
2000-09-09, 02:03:00,VALID,917.24,VALID,0,VALID,99.6925,VALID,-0.0509425,VALID,18.54,VALID,206,VALID,0.991343,
2000-09-09, 02:04:01,VALID,917.245,VALID,0,VALID,99.7243,VALID,-0.0169808,VALID,18.5656,VALID,202,VALID,0.681526,
2000-09-09, 02:05:00,VALID,917.246,VALID,0,VALID,99.7116,VALID,-0.0339617,VALID,18.5557,VALID,214,VALID,0.474662,
2000-09-09, 02:06:00,VALID,917.246,VALID,0,VALID,99.7116,VALID,-0.0509425,VALID,18.5594,VALID,208,VALID,0.477539,
2000-09-09, 02:07:00,VALID,917.256,VALID,0,VALID,99.7091,VALID,-0.0509425,VALID,18.5433,VALID,193,VALID,0.486779,
2000-09-09, 02:08:00,VALID,917.249,VALID,0,VALID,99.7396,VALID,-0.0679233,VALID,18.5597,VALID,176,VALID,0.6375,
2000-09-09, 02:09:00,VALID,917.258,VALID,0,VALID,99.704,VALID,-0.0679233,VALID,18.5271,VALID,159,VALID,0.547297,
2000-09-09, 02:10:00,VALID,917.253,VALID,0,VALID,99.6887,VALID,-0.0679233,VALID,18.4981,VALID,189,VALID,0.39614,
2000-09-09, 02:11:00,VALID,917.246,VALID,0,VALID,99.6976,VALID,-0.0339617,VALID,18.4851,VALID,208,VALID,0.718961,
2000-09-09, 02:12:00,VALID,917.247,VALID,0,VALID,99.7536,VALID,-0.0509425,VALID,18.5013,VALID,215,VALID,0.77241,
2000-09-09, 02:13:00,VALID,917.25,VALID,0,VALID,99.7434,VALID,-0.0339617,VALID,18.5013,VALID,221,VALID,0.924548,
2000-09-09, 02:14:00,VALID,917.252,VALID,0,VALID,99.7459,VALID,-0.0339617,VALID,18.5013,VALID,234,VALID,0.78683,
2000-09-09, 02:15:00,VALID,917.264,VALID,0,VALID,99.7281,VALID,-0.0509425,VALID,18.4948,VALID,248,VALID,0.41364,
2000-09-09, 02:16:01,VALID,917.275,VALID,0,VALID,99.6989,VALID,-0.0679233,VALID,18.4466,VALID,252,VALID,0,
2000-09-09, 02:17:00,VALID,917.273,VALID,0,VALID,99.6836,VALID,-0.0509425,VALID,18.4042,VALID,241,VALID,0,
2000-09-09, 02:18:00,VALID,917.292,VALID,0,VALID,99.6913,VALID,-0.0339617,VALID,18.3788,VALID,212,VALID,0.2229,
2000-09-09, 02:19:00,VALID,917.304,VALID,0,VALID,99.6951,VALID,-0.0339617,VALID,18.353,VALID,204,VALID,0.772236,
2000-09-09, 02:20:00,VALID,917.329,VALID,0,VALID,99.7192,VALID,-0.0339617,VALID,18.3532,VALID,200,VALID,0.529688,
2000-09-09, 02:21:00,VALID,917.339,VALID,0,VALID,99.7167,VALID,-0.0509425,VALID,18.3306,VALID,145,VALID,0.604519,
2000-09-09, 02:22:00,VALID,917.355,VALID,0,VALID,99.7345,VALID,0,VALID,18.3103,VALID,130,VALID,0.746094,
2000-09-09, 02:23:00,VALID,917.377,VALID,0,VALID,99.751,VALID,-0.0169808,VALID,18.3202,VALID,140,VALID,0.732475,
2000-09-09, 02:24:00,VALID,917.382,VALID,0,VALID,99.7726,VALID,-0.0339617,VALID,18.3331,VALID,144,VALID,0.755757,
2000-09-09, 02:25:00,VALID,917.41,VALID,0,VALID,99.84,VALID,-0.0509425,VALID,18.3952,VALID,161,VALID,0.638569,
2000-09-09, 02:26:00,VALID,917.424,VALID,0,VALID,99.8489,VALID,-0.0509425,VALID,18.4275,VALID,157,VALID,0.881027,
2000-09-09, 02:27:01,VALID,917.443,VALID,0,VALID,99.826,VALID,-0.0509425,VALID,18.4205,VALID,157,VALID,1.02639,
2000-09-09, 02:28:01,VALID,917.468,VALID,0,VALID,99.8438,VALID,-0.0169808,VALID,18.4009,VALID,168,VALID,1.08226,
2000-09-09, 02:29:00,VALID,917.488,VALID,0,VALID,99.8426,VALID,-0.0339617,VALID,18.424,VALID,173,VALID,0.960515,
2000-09-09, 02:30:00,VALID,917.524,VALID,0,VALID,99.8324,VALID,-0.0169808,VALID,18.4104,VALID,190,VALID,0.823486,
2000-09-09, 02:31:00,VALID,917.558,VALID,0,VALID,99.7993,VALID,0,VALID,18.3749,VALID,183,VALID,0.835938,
2000-09-09, 02:32:00,VALID,917.595,VALID,0,VALID,99.7523,VALID,0,VALID,18.3301,VALID,189,VALID,0.91942,
2000-09-09, 02:33:00,VALID,917.61,VALID,0,VALID,99.7777,VALID,-0.0339617,VALID,18.2752,VALID,204,VALID,0.659417,
2000-09-09, 02:34:00,VALID,917.637,VALID,0,VALID,99.8057,VALID,-0.0169808,VALID,18.2884,VALID,202,VALID,0.422335,
2000-09-09, 02:35:00,VALID,917.641,VALID,0,VALID,99.7675,VALID,-0.0339617,VALID,18.2588,VALID,176,VALID,0.392103,
2000-09-09, 02:36:00,VALID,917.626,VALID,0,VALID,99.7523,VALID,-0.0169808,VALID,18.194,VALID,170,VALID,0.277138,
2000-09-09, 02:37:00,VALID,917.611,VALID,0,VALID,99.7497,VALID,-0.0679233,VALID,18.159,VALID,180,VALID,0.621299,
2000-09-09, 02:38:00,VALID,917.571,VALID,0,VALID,99.8235,VALID,-0.0169808,VALID,18.1716,VALID,177,VALID,1.07455,
2000-09-09, 02:39:01,VALID,917.544,VALID,0,VALID,99.8896,VALID,-0.0339617,VALID,18.2074,VALID,174,VALID,1.26267,
2000-09-09, 02:40:01,VALID,917.511,VALID,0,VALID,99.8871,VALID,0,VALID,18.2658,VALID,161,VALID,1.32491,
2000-09-09, 02:41:00,VALID,917.481,VALID,0,VALID,99.8527,VALID,0,VALID,18.2494,VALID,168,VALID,1.34734,
2000-09-09, 02:42:00,VALID,917.474,VALID,0,VALID,99.8947,VALID,-0.0339617,VALID,18.2462,VALID,177,VALID,1.29663,
2000-09-09, 02:43:00,VALID,917.476,VALID,0,VALID,99.9227,VALID,-0.0169808,VALID,18.2817,VALID,173,VALID,1.42488,
2000-09-09, 02:44:00,VALID,917.484,VALID,0,VALID,99.9405,VALID,-0.0169808,VALID,18.3207,VALID,188,VALID,1.28594,
2000-09-09, 02:45:00,VALID,917.504,VALID,0,VALID,99.9329,VALID,0,VALID,18.3267,VALID,188,VALID,1.59818,
2000-09-09, 02:46:00,VALID,917.521,VALID,0,VALID,99.9138,VALID,-0.0339617,VALID,18.3239,VALID,175,VALID,1.42486,
2000-09-09, 02:47:00,VALID,917.526,VALID,0,VALID,99.9125,VALID,-0.0339617,VALID,18.3177,VALID,195,VALID,1.38556,
2000-09-09, 02:48:00,VALID,917.555,VALID,0,VALID,99.9621,VALID,0,VALID,18.3333,VALID,200,VALID,1.77632,
2000-09-09, 02:49:00,VALID,917.552,VALID,0,VALID,99.9697,VALID,-0.0169808,VALID,18.3656,VALID,213,VALID,1.31435,
2000-09-09, 02:50:00,VALID,917.563,VALID,0,VALID,99.9519,VALID,-0.0509425,VALID,18.3721,VALID,195,VALID,1.04576,
2000-09-09, 02:51:01,VALID,917.556,VALID,0,VALID,99.9596,VALID,-0.0339617,VALID,18.3594,VALID,202,VALID,1.20418,
2000-09-09, 02:52:01,VALID,917.553,VALID,0,VALID,99.985,VALID,-0.0849042,VALID,18.382,VALID,205,VALID,1.6335,
2000-09-09, 02:53:00,VALID,917.534,VALID,0,VALID,99.9758,VALID,-0.0339617,VALID,18.3984,VALID,202,VALID,1.1307,
2000-09-09, 02:54:00,VALID,917.516,VALID,0,VALID,99.9634,VALID,0,VALID,18.4014,VALID,205,VALID,1.76733,
2000-09-09, 02:55:00,VALID,917.508,VALID,0,VALID,99.9774,VALID,-0.0169808,VALID,18.4109,VALID,211,VALID,2.04227,
2000-09-09, 02:56:00,VALID,917.508,VALID,0,VALID,99.9685,VALID,-0.0339617,VALID,18.4205,VALID,209,VALID,1.01696,
2000-09-09, 02:57:00,VALID,917.5,VALID,0,VALID,99.9758,VALID,-0.0339617,VALID,18.4111,VALID,217,VALID,1.61951,
2000-09-09, 02:58:00,VALID,917.492,VALID,0,VALID,99.9847,VALID,-0.0849042,VALID,18.4175,VALID,211,VALID,1.18658,
2000-09-09, 02:59:00,VALID,917.485,VALID,0,VALID,99.9883,VALID,-0.0169808,VALID,18.4143,VALID,219,VALID,0.808699,
2000-09-09, 03:00:00,VALID,917.49,VALID,0,VALID,99.9921,VALID,-0.0339617,VALID,18.4238,VALID,212,VALID,1.40378,
2000-09-09, 03:01:00,VALID,917.464,VALID,0,VALID,99.9896,VALID,-0.0169808,VALID,18.4238,VALID,220,VALID,1.45148,
2000-09-09, 03:02:00,VALID,917.466,VALID,0,VALID,99.9873,VALID,-0.0339617,VALID,18.4171,VALID,213,VALID,1.02277,
2000-09-09, 03:03:01,VALID,917.462,VALID,0,VALID,99.9786,VALID,-0.0169808,VALID,18.4175,VALID,205,VALID,1.26605,
2000-09-09, 03:04:01,VALID,917.448,VALID,0,VALID,99.9723,VALID,-0.0169808,VALID,18.391,VALID,192,VALID,1.07813,
2000-09-09, 03:05:00,VALID,917.421,VALID,0,VALID,99.9723,VALID,-0.0169808,VALID,18.3786,VALID,183,VALID,0.976351,
2000-09-09, 03:06:00,VALID,917.386,VALID,0,VALID,99.9761,VALID,-0.0169808,VALID,18.3659,VALID,172,VALID,1.05127,
2000-09-09, 03:07:00,VALID,917.341,VALID,0,VALID,99.9786,VALID,-0.0169808,VALID,18.3463,VALID,155,VALID,0.856571,
2000-09-09, 03:08:00,VALID,917.312,VALID,0,VALID,99.9685,VALID,0,VALID,18.3043,VALID,148,VALID,0.916964,
2000-09-09, 03:09:00,VALID,917.272,VALID,0,VALID,99.9774,VALID,-0.0339617,VALID,18.2847,VALID,143,VALID,1.21052,
2000-09-09, 03:10:00,VALID,917.245,VALID,0,VALID,99.9634,VALID,-0.0339617,VALID,18.2658,VALID,142,VALID,1.17371,
2000-09-09, 03:11:00,VALID,917.21,VALID,0,VALID,99.9631,VALID,-0.0169808,VALID,18.2175,VALID,143,VALID,1.20524,
2000-09-09, 03:12:00,VALID,917.202,VALID,0,VALID,99.972,VALID,-0.0339617,VALID,18.2302,VALID,146,VALID,0.952097,
2000-09-09, 03:13:00,VALID,917.188,VALID,0,VALID,99.9545,VALID,-0.0509425,VALID,18.1783,VALID,161,VALID,0.981702,
2000-09-09, 03:14:00,VALID,917.186,VALID,0,VALID,99.9748,VALID,-0.0339617,VALID,18.1783,VALID,150,VALID,0.904911,
2000-09-09, 03:15:01,VALID,917.194,VALID,0,VALID,99.9545,VALID,-0.0169808,VALID,18.159,VALID,162,VALID,0.620566,
2000-09-09, 03:16:01,VALID,917.201,VALID,0,VALID,99.9718,VALID,0,VALID,18.1426,VALID,165,VALID,0.984605,
2000-09-09, 03:17:00,VALID,917.191,VALID,0,VALID,99.9911,VALID,0,VALID,18.1624,VALID,170,VALID,1.10874,
2000-09-09, 03:18:00,VALID,917.192,VALID,0,VALID,99.9954,VALID,0,VALID,18.1689,VALID,208,VALID,1.01172,
2000-09-09, 03:19:00,VALID,917.182,VALID,0,VALID,99.999,VALID,-0.0169808,VALID,18.1818,VALID,227,VALID,0.969952,
2000-09-09, 03:20:00,VALID,917.171,VALID,0,VALID,99.999,VALID,-0.0509425,VALID,18.1818,VALID,237,VALID,0.846875,
2000-09-09, 03:21:00,VALID,917.179,VALID,0,VALID,99.9954,VALID,0,VALID,18.1753,VALID,231,VALID,0.925042,
2000-09-09, 03:22:00,VALID,917.19,VALID,0,VALID,99.9931,VALID,-0.0169808,VALID,18.1624,VALID,220,VALID,0.829963,
2000-09-09, 03:23:00,VALID,917.215,VALID,0,VALID,99.986,VALID,-0.0509425,VALID,18.1525,VALID,222,VALID,0.5606,
2000-09-09, 03:24:00,VALID,917.235,VALID,0,VALID,99.9941,VALID,-0.0509425,VALID,18.1465,VALID,232,VALID,0.56764,
2000-09-09, 03:25:00,VALID,917.252,VALID,0,VALID,99.9977,VALID,0,VALID,18.156,VALID,227,VALID,0.532484,
2000-09-09, 03:26:00,VALID,917.282,VALID,0,VALID,99.999,VALID,-0.0339617,VALID,18.1424,VALID,226,VALID,0.145536,
2000-09-09, 03:27:01,VALID,917.31,VALID,0,VALID,100,VALID,-0.0169808,VALID,18.1523,VALID,232,VALID,0.322213,
2000-09-09, 03:28:01,VALID,917.335,VALID,0,VALID,100,VALID,-0.0169808,VALID,18.1615,VALID,224,VALID,0.0792739,
2000-09-09, 03:29:00,VALID,917.366,VALID,0,VALID,99.999,VALID,-0.0339617,VALID,18.1753,VALID,267,VALID,0.0204814,
2000-09-09, 03:30:00,VALID,917.391,VALID,0,VALID,99.9786,VALID,-0.0169808,VALID,18.1396,VALID,4,VALID,0.456299,
2000-09-09, 03:31:00,VALID,917.404,VALID,0,VALID,99.9735,VALID,-0.0509425,VALID,18.1336,VALID,11,VALID,0.465745,
2000-09-09, 03:32:00,VALID,917.396,VALID,0,VALID,99.971,VALID,-0.0339617,VALID,18.1133,VALID,11,VALID,0.222321,
2000-09-09, 03:33:00,VALID,917.409,VALID,0,VALID,99.9748,VALID,-0.0509425,VALID,18.1107,VALID,11,VALID,0.0219595,
2000-09-09, 03:34:00,VALID,917.394,VALID,0,VALID,99.9468,VALID,-0.0339617,VALID,18.0759,VALID,11,VALID,0,